Dewpoint
43 43 42 42 43 43 43 44 44 45 46 47 47 47 48 49 51 52 51 52 53 52
41 41 41 41 42 43 44 44 45 47 48 47 47 47 47 48 49 50 51 50 52 52
42 43 43 43 44 44 45 45 46 46 46 46 46 46 46 47 48 49 50 51 51 52
43 45 45 45 44 43 43 43 44 44 43 43 44 46 46 47 47 48 48 49 51 51
43 44 44 43 41 41 41 41 42 42 43 44 46 47 47 47 48 48 48 49 51 51
42 42 41 41 40 39 40 40 41 42 43 44 46 49 48 47 47 48 48 48 50 50
41 41 39 39 39 39 40 40 41 42 43 46 47 48 48 48 48 48 48 49 50 50
40 40 39 38 38 38 39 40 41 41 43 45 46 47 48 48 48 47 45 45 46 47
38 38 37 37 37 38 39 39 40 41 42 43 44 46 47 45 44 44 43 42 42 44
38 37 36 37 37 37 38 38 39 39 40 41 42 44 44 43 41 40 40 40 40 41
37 36 36 36 36 37 37 38 38 38 38 39 40 42 41 40 37 37 36 37 37 37
37 36 36 35 36 36 36 37 36 36 37 38 38 39 39 37 35 33 33 33 33 34
37 36 35 35 35 36 36 35 35 34 35 37 37 38 37 36 33 31 31 32 33 35
37 36 35 35 36 35 34 34 33 33 34 34 34 35 36 35 31 30 31 32 32 31
Lifted_Index
11 11 11 10 10 10 9 9 9 9 8 8 7 7 6 6 6 5 5 3 2 2
11 11 10 10 10 9 9 9 9 9 8 8 7 7 6 6 6 6 5 4 3 2
10 10 10 9 9 9 9 9 9 9 8 8 7 7 7 6 6 6 5 4 3 3
10 10 9 9 9 9 9 9 8 8 8 7 7 6 6 6 5 5 5 4 3 2
10 9 9 9 9 9 9 8 8 7 7 6 6 5 4 4 4 4 4 3 2 2
10 9 9 9 9 9 8 7 7 6 5 5 5 4 3 3 3 3 3 3 2 2
10 9 9 9 9 8 8 7 6 5 5 4 4 3 3 3 3 3 3 3 2 1
10 9 9 9 9 8 7 6 6 5 5 4 4 3 3 3 3 3 2 2 2 1
10 9 9 9 9 8 7 6 6 6 5 5 4 3 3 3 3 2 2 2 1 2
10 9 9 9 9 8 7 7 6 6 5 5 4 3 3 3 2 2 2 2 2 2
9 9 9 9 9 8 7 7 6 6 5 5 4 3 3 3 2 2 2 3 3 3
9 9 9 9 9 8 7 7 6 6 5 5 5 4 4 3 3 3 3 3 4 4
9 9 9 9 9 9 8 7 7 6 6 6 5 5 5 4 4 4 4 4 5 6
9 9 9 9 9 9 8 8 7 6 6 6 6 6 6 5 5 4 5 5 6 8